[[{"header":{"parameterUnit":"m.s-1","parameterCategory":1,"la1":30.2992,"la2":30.254,"lo1":-89.0895,"lo2":-89.0443,"dy":0.0025,"dx":0.0025,"nx":19,"ny":19,"refTime":"2026-03-31T09:00:00:Z","depth":0,"parameterNumber":2,"parameterNumberName":"U-component_of_WINDS"},"data":[0,0,0,-3.5676,-3.5678,-3.5798,-3.5799,-3.5953,-3.5955,0,0,0,0,0,0,0,0,0,0,0,-3.5639,-3.564,-3.5676,-3.5679,-3.5798,-3.5799,-3.5953,-3.5955,0,0,0,0,0,0,0,0,0,0,0,-3.5639,-3.564,-3.5641,-3.5679,-3.5798,-3.5799,-3.5953,-3.5862,0,0,0,0,0,0,0,0,0,0,-3.5746,-3.5711,-3.564,-3.5641,-3.568,-3.5798,-3.5799,-3.5858,-3.5868,-3.5899,0,-3.5925,0,-3.5942,-3.5965,-3.5965,0,0,0,-3.568,-3.5702,-3.5735,-3.5641,-3.5681,-3.5798,-3.5745,-3.5863,-3.5875,-3.5912,-3.5927,-3.5933,-3.5945,-3.5966,-3.5967,-3.6138,-3.6139,0,0,-3.5673,-3.5661,-3.5727,-3.5743,-3.5722,-3.5741,-3.5748,-3.587,-3.5886,-3.5928,-3.5936,-3.5947,-3.5967,-3.5968,-3.6137,-3.6138,0,0,0,-3.5653,-3.5656,-3.5686,-3.5736,-3.5758,-3.5744,-3.5753,-3.5881,-3.5892,-3.5938,-3.5949,-3.5968,-3.597,-3.6137,-3.6138,-3.6161,0,0,0,-3.5649,-3.5644,-3.5683,-3.5677,-3.5755,-3.582,-3.5761,-3.5883,-3.5897,-3.5948,-3.5968,-3.5971,-3.6136,-3.6137,-3.6158,-3.6173,0,0,0,-3.5632,-3.5642,-3.5659,-3.5676,-3.5727,-3.5819,-3.5837,-3.5886,-3.5904,-3.5966,-3.5972,-3.6135,-3.6137,-3.6156,-3.617,-3.6213,0,0,0,-3.561,-3.5679,-3.5659,-3.5742,-3.5726,-3.5832,-3.5836,-3.5916,-3.5972,-3.5969,-3.6136,-3.6138,-3.6155,-3.6168,-3.6211,-3.6246,-3.626,0,0,-3.569,-3.5688,-3.5738,-3.5724,-3.583,-3.5815,-3.5926,-3.5989,-3.6008,-3.6094,-3.6098,-3.6159,-3.6169,-3.6213,-3.6346,-3.6357,0,0,0,-3.5759,-3.5794,-3.5825,-3.5877,-3.5926,-3.597,-3.6018,-3.6042,-3.6116,-3.6049,-3.6188,-3.6195,-3.6221,-3.6238,-3.6247,-3.627,-3.6146,-3.6145,-3.6145,-3.5854,-3.5873,-3.5956,-3.5989,-3.6039,-3.6088,-3.6131,-3.6172,-3.6177,-3.621,-3.6234,-3.6313,-3.6333,-3.634,-3.6363,-3.6257,-3.6257,-3.6257,-3.6257,-3.5972,-3.6024,-3.6029,-3.6111,-3.6131,-3.6201,-3.6252,-3.6253,-3.6321,-3.6296,-3.632,-3.6288,-3.6351,-3.6372,-3.6259,-3.6259,-3.6258,-3.6258,-3.6258,-3.6035,-3.6063,-3.609,-3.6166,-3.6224,-3.6257,-3.6322,-3.6339,-3.6356,-3.638,-3.6407,-3.6407,-3.6407,-3.6392,-3.6392,-3.6392,-3.6393,-3.6393,-3.6393,-3.6088,-3.6118,-3.6169,-3.6228,-3.6263,-3.6313,-3.6364,-3.64,-3.6444,-3.6451,-3.6452,-3.6453,-3.6354,-3.6328,-3.6397,-3.6397,-3.6396,-3.6396,-3.6395,-3.6197,-3.6175,-3.6254,-3.6289,-3.636,-3.6416,-3.6438,-3.6509,-3.6542,-3.6573,-3.6571,-3.6496,-3.6495,-3.6488,-3.6466,-3.6567,-3.6567,-3.6567,-3.6567,-3.6248,-3.6249,-3.6334,-3.6389,-3.6446,-3.6473,-3.6564,-3.6605,-3.6644,-3.6666,-3.6655,-3.6628,-3.662,-3.6624,-3.6614,-3.6594,-3.6725,-3.6725,-3.6725,-3.6315,-3.6323,-3.6395,-3.6432,-3.6489,-3.6537,-3.6623,-3.6688,-3.6728,-3.6732,-3.6683,-3.6676,-3.6634,-3.6619,-3.6619,-3.6602,-3.6565,0,0]},{"header":{"parameterUnit":"m.s-1","parameterCategory":1,"la1":30.2992,"la2":30.254,"lo1":-89.0895,"lo2":-89.0443,"dy":0.0025,"dx":0.0025,"nx":19,"ny":19,"refTime":"2026-03-31T09:00:00:Z","depth":0,"parameterNumber":3,"parameterNumberName":"V-component_of_WINDS"},"data":[0,0,0,3.3715,3.3716,3.3771,3.3771,3.3847,3.3847,0,0,0,0,0,0,0,0,0,0,0,3.3703,3.3704,3.3715,3.3716,3.3771,3.3771,3.3847,3.3847,0,0,0,0,0,0,0,0,0,0,0,3.3703,3.3703,3.3704,3.3716,3.3771,3.3771,3.3846,3.3803,0,0,0,0,0,0,0,0,0,0,3.3748,3.3742,3.3703,3.3704,3.3717,3.3771,3.3771,3.38,3.3805,3.3824,0,3.3844,0,3.3847,3.3853,3.3853,0,0,0,3.3712,3.3738,3.3749,3.3704,3.3717,3.3771,3.3745,3.3803,3.3809,3.3831,3.3845,3.3847,3.3848,3.3853,3.3854,3.398,3.3981,0,0,3.3709,3.3715,3.3745,3.3753,3.3746,3.3743,3.3747,3.3806,3.3821,3.3845,3.3849,3.385,3.3854,3.3855,3.3979,3.398,0,0,0,3.3703,3.3713,3.3722,3.375,3.376,3.3745,3.3749,3.3819,3.3821,3.385,3.385,3.3854,3.3856,3.3978,3.398,3.4024,0,0,0,3.3701,3.3709,3.3721,3.3725,3.3759,3.379,3.376,3.3817,3.3824,3.385,3.3855,3.3856,3.3978,3.3979,3.4021,3.4045,0,0,0,3.3698,3.3709,3.3718,3.3725,3.3749,3.3789,3.3795,3.3818,3.3824,3.3853,3.3857,3.3977,3.3979,3.4019,3.404,3.4081,0,0,0,3.3695,3.3756,3.3719,3.3787,3.3749,3.3816,3.3794,3.3844,3.3874,3.3855,3.3978,3.398,3.4018,3.4037,3.4078,3.4117,3.4133,0,0,3.3775,3.3766,3.3805,3.3774,3.385,3.3808,3.389,3.3911,3.3907,3.3956,3.3959,3.4022,3.404,3.408,3.4222,3.4235,0,0,0,3.3832,3.3861,3.388,3.391,3.3929,3.3947,3.3955,3.3963,3.4004,3.3934,3.4047,3.4057,3.4081,3.4099,3.411,3.413,3.3988,3.3988,3.3988,3.3953,3.3947,3.4013,3.4014,3.4043,3.4051,3.4074,3.4086,3.407,3.4097,3.4112,3.4199,3.422,3.4229,3.425,3.4131,3.4131,3.4131,3.4131,3.4071,3.4111,3.4089,3.4146,3.4138,3.4184,3.4195,3.4182,3.4224,3.4187,3.4207,3.4168,3.4243,3.4262,3.4134,3.4134,3.4133,3.4133,3.4133,3.4151,3.4169,3.4178,3.4222,3.4256,3.4253,3.4295,3.4286,3.4277,3.4297,3.4313,3.4312,3.4311,3.4305,3.4305,3.4306,3.4306,3.4306,3.4306,3.423,3.424,3.4277,3.4303,3.4321,3.4344,3.4353,3.4371,3.4388,3.4378,3.4378,3.436,3.4252,3.4225,3.4311,3.431,3.431,3.4309,3.4309,3.4354,3.4325,3.4382,3.4401,3.4431,3.4465,3.4453,3.449,3.4503,3.4523,3.4501,3.4422,3.4411,3.4402,3.4381,3.4501,3.4501,3.4501,3.4501,3.4423,3.4417,3.4474,3.4505,3.4533,3.4529,3.4593,3.4601,3.4603,3.4611,3.4592,3.4562,3.4553,3.4548,3.4536,3.4515,3.4667,3.4668,3.4668,3.4499,3.4496,3.4553,3.4557,3.458,3.4599,3.466,3.4695,3.4691,3.4674,3.4617,3.461,3.4561,3.4546,3.4529,3.451,3.4472,0,0]}]]